This is the latest recevied weather packets stored in our database for station/object N5ZP. If no packets are shown the sender has not sent any weather packets the latest 1 day(s).
| Time | Temp. | Humidity | Pressure | Rain* | Wind** | Luminosity | Snow |
|---|---|---|---|---|---|---|---|
| 1778026355 | 21.67° C | 68% | 1002.9 hPa | 0 mm | 2.68 m/s, 359° | 15 W/m² | - |
| 1778026051 | 22.22° C | 67% | 1002.8 hPa | 0 mm | 1.79 m/s, 7° | 24 W/m² | - |
| 1778025749 | 22.22° C | 67% | 1002.9 hPa | 0 mm | 2.68 m/s, 314° | 23 W/m² | - |
| 1778025446 | 22.22° C | 66% | 1003.1 hPa | 0 mm | 3.13 m/s, 9° | 25 W/m² | - |
| 1778025144 | 22.78° C | 67% | 1002.9 hPa | 0 mm | 2.24 m/s, 358° | 29 W/m² | - |
| 1778024840 | 22.78° C | 66% | 1002.7 hPa | 0 mm | 2.24 m/s, 42° | 43 W/m² | - |
| 1778024538 | 22.78° C | 65% | 1002.8 hPa | 0 mm | 1.79 m/s, 303° | 64 W/m² | - |
| 1778024234 | 23.33° C | 65% | 1002.7 hPa | 0 mm | 3.58 m/s, 316° | 62 W/m² | - |
| 1778023932 | 23.33° C | 65% | 1002.8 hPa | 0 mm | 1.79 m/s, 279° | 68 W/m² | - |
| 1778023629 | 23.89° C | 65% | 1002.6 hPa | 0 mm | 2.68 m/s, 342° | 69 W/m² | - |
| 1778023326 | 23.89° C | 64% | 1002.7 hPa | 0 mm | 2.68 m/s, 3° | 94 W/m² | - |
| 1778023023 | 23.89° C | 63% | 1002.7 hPa | 0 mm | 2.24 m/s, 308° | 75 W/m² | - |
| 1778022722 | 23.89° C | 63% | 1002.6 hPa | 0 mm | 2.24 m/s, 317° | 65 W/m² | - |
| 1778022420 | 23.89° C | 62% | 1002.5 hPa | 0 mm | 2.68 m/s, 252° | 56 W/m² | - |
| 1778022116 | 24.44° C | 61% | 1002.4 hPa | 0 mm | 0.89 m/s, 270° | 85 W/m² | - |
| 1778021812 | 24.44° C | 61% | 1002.5 hPa | 0 mm | 2.68 m/s, 356° | 92 W/m² | - |
| 1778021509 | 25° C | 60% | 1002.2 hPa | 0 mm | 3.58 m/s, 356° | 94 W/m² | - |
| 1778021205 | 25° C | 60% | 1002.4 hPa | 0 mm | 4.02 m/s, 26° | 95 W/m² | - |
| 1778020903 | 25.56° C | 61% | 1002.3 hPa | 0 mm | 1.34 m/s, 238° | 108 W/m² | - |
| 1778020600 | 25.56° C | 61% | 1002.2 hPa | 0 mm | 1.34 m/s, 311° | 116 W/m² | - |
| 1778020296 | 26.11° C | 61% | 1002.1 hPa | 0 mm | 1.34 m/s, 289° | 113 W/m² | - |
| 1778019992 | 26.11° C | 60% | 1001.8 hPa | 0 mm | 1.34 m/s, 255° | 138 W/m² | - |
| 1778019689 | 26.11° C | 59% | 1002.3 hPa | 0 mm | 1.79 m/s, 271° | 131 W/m² | - |
| 1778019386 | 26.67° C | 60% | 1002 hPa | 0 mm | 1.79 m/s, 340° | 110 W/m² | - |
| 1778019082 | 26.67° C | 59% | 1001.8 hPa | 0 mm | 2.24 m/s, 262° | 132 W/m² | - |
* Rain latest hour (hover to see other rain measurements)
** Current wind speed in m/s (hover to see current wind gust speed)